Regional Weather Roundup
Issued by NWS

Home | Current Version | Previous Version | Text Only | Print | Product List | Glossary Off
Versions: 1 2 3 4 5 6 7 8 9 10 11 12 13 14 15 16 17 18 19 20 21 22 23 24 25 26 27 28 29 30 31 32 33 34 35 36 37 38 39 40 41 42 43 44 45 46 47 48 49

000
ASUS45 KSLC 271310
RWRUT

UTAH REGIONAL WEATHER ROUNDUP
NATIONAL WEATHER SERVICE SALT LAKE CITY UT
700 AM MDT THU AUG 27 2015

UTZ001>011-023>025-271400-

NORTHERN UTAH

CITY           SKY/WX    TMP DP  RH WIND       PRES   REMARKS
BRIGHAM CITY   CLEAR     59  55  85 E3        30.23R
HILL AFB       PTCLDY    61  57  86 E10       30.25R
LOGAN          CLEAR     54  53  97 CALM      30.24R FOG
OGDEN          CLEAR     62  56  80 S9        30.23R
PROVO AIRPORT  PTCLDY    57  52  82 E3        30.27R
SALT LAKE CITY PTCLDY    65  55  70 SE7       30.22R
VERNAL         CLOUDY    63  58  83 NE5       30.26R
WENDOVER       PTCLDY    66  50  55 CALM      30.22R
HEBER CITY     CLOUDY    55  54  94 CALM      30.33R
WEST JORDAN    CLEAR     64  55  72 S8        30.25R

$$

UTZ012>022-026-027-271400-

SOUTHERN/CENTRAL UTAH

CITY           SKY/WX    TMP DP  RH WIND       PRES   REMARKS
BLANDING       CLOUDY    61  57  87 CALM      30.42R
BRYCE CANYON   CLEAR     48  46  93 CALM      30.44R
CEDAR CITY     MOCLDY    53  51  93 NW6       30.32R
DELTA          CLEAR     57  52  84 NE6       30.28R
HANKSVILLE     PTCLDY    63  61  94 CALM      30.26R
MILFORD        PTCLDY    58  53  84 S6        30.28R
MOAB/CYNLANDS  CLOUDY    62  62 100 CALM      30.23R
PRICE          CLEAR     57  55  93 N5        30.32R
ST GEORGE      SUNNY     70  55  60 CALM      30.20R
KANAB          CLEAR     57  57 100 NW9       30.34F

$$

REGIONAL REPORTS     COLORADO/ARIZONA

CITY           SKY/WX    TMP DP  RH WIND       PRES   REMARKS
CRAIG, CO      CLOUDY    59  57  93 CALM      30.31R
GRAND JUNCTION LGT RAIN  62  61  96 SE8       30.26R
RIFLE          CLOUDY    61  59  93 CALM      30.29R
MONTROSE       CLOUDY    60  58  92 SE6       30.34R
CORTEZ         LGT RAIN  59  58  96 CALM      30.35S
PAGE, AZ       CLEAR     66  60  81 CALM      30.24R
GRAND CANYON   CLEAR     46  45  96 NE5       30.39S
KINGMAN        CLEAR     68  59  73 CALM      30.16R
FLAGSTAFF      CLEAR     49  49 100 CALM      30.41R

$$

REGIONAL REPORTS    NEVADA/IDAHO/WYOMING

CITY           SKY/WX    TMP DP  RH WIND       PRES   REMARKS
LAS VEGAS, NV  PTCLDY    82  56  40 SW3       30.03F
ELY            PTCLDY    47  45  93 S10       30.36R
ELKO           PTCLDY    59  43  55 NE3       30.27R
POCATELLO, ID  CLEAR     54  50  86 E6        30.22S
BURLEY         PTCLDY    57  49  74 E3        30.17R
EVANSTON, WY   FOG       54  53  97 SW8       30.37R VSB 1/4
ROCK SPRINGS   MOCLDY    55  53  93 W9        30.32R
KEMMERER       PTCLDY    50  50 100 W6        30.36R

$$



USA.gov is the U.S. government's official web portal to all federal, state and local government web resources and services.